Tracking 18987 objects as of 25-Feb-2018
HD Live streaming from Space Station
objects crossing your sky now

NOAA 16 DEB

Track NOAA 16 DEB now!
10-day predictions


NORAD ID: 41259
Int'l Code: 2000-055FK
Perigee: 710.0 km
Apogee: 860.9 km
Inclination: 98.8 °
Period: 100.4 minutes
Semi major axis: 7156 km
RCS: Unknown
Launch date: September 21, 2000
Source: United States (US)
Launch site: AIR FORCE WESTERN TEST RANGE (AFWTR)

Note: This is SATELLITE DEBRIS
aabbcc
Your satellite tracking list
Your tracking list is empty




NASA's NSSDC Master Catalog

Two Line Element Set (TLE):
1 41259U 00055FK  18055.48630915 +.00001912 +00000-0 +65905-3 0  9997
2 41259 098.8357 153.1893 0105466 192.9052 166.9429 14.34018618114383
Source of the keplerian elements: AFSPC